Weather History for KOTM - September, 2011

Change the Weather History Date:

Saturday, September 10, 2011

  Actual Average Record
Temperature  
Mean Temperature 67 °F 67 °F  
Max Temperature 80 °F 78 °F 100 °F (1912)
Min Temperature 54 °F 55 °F 40 °F (1910)
Degree Days  
Heating Degree Days 0 2  
Month to date heating degree days 25 14  
Since 1 July heating degree days 25 25  
Cooling Degree Days 2 4  
Month to date cooling degree days 49 49  
Year to date cooling degree days 1072 883  
Growing Degree Days 17 (Base 50)    
Moisture  
Dew Point 57 °F    
Average Humidity 73    
Maximum Humidity 100    
Minimum Humidity 45    
Precipitation  
Precipitation 0.00 in 0.13 in 1.90 in (1921)
Month to date precipitation 0.56 1.36  
Year to date precipitation 25.65 28.06  
Sea Level Pressure  
Sea Level Pressure 30.01 in    
Wind  
Wind Speed 6 mph (NNE)    
Max Wind Speed 15 mph    
Max Gust Speed 21 mph    
Visibility 10 miles    
Events      
T = Trace of Precipitation, MM = Missing Value Source: NWS Daily Summary

Daily Weather History Graph

Daily Weather History Graph

Search for Another Location

Airport or City:

Trip Planner

Search our weather history database for the weather conditions in past years. The results will help you decide how hot, cold, wet, or windy it might be!

Date:

Astronomy

Sep. 10, 2011 Rise Set
Actual Time 6:45 AM CDT 7:27 PM CDT
Civil Twilight 6:17 AM CDT 7:55 PM CDT
Nautical Twilight 5:44 AM CDT 8:28 PM CDT
Astronomical Twilight 5:10 AM CDT 9:02 PM CDT
Moon 6:22 PM CDT (9/10) 5:05 AM CDT (9/10)
Length of Visible Light 13h 38m
Length of Day
12h 42m
Waxing Gibbous, 97% of the Moon is Illuminated
Sep 10
Waxing Gibbous
Sep 12
Full
Sep 20
Last Quarter
Sep 27
New
Oct 3
First Quarter

Hourly Weather History & Observations

Time (CDT) Temp. Dew Point Humidity Pressure Visibility Wind Dir Wind Speed Gust Speed Precip Events Conditions
12:53 AM 63.0 °F 55.0 °F 75% 29.97 in 10.0 mi NNE 3.5 mph - N/A   Scattered Clouds
1:53 AM 63.0 °F 57.0 °F 81% 29.97 in 10.0 mi NE 5.8 mph - N/A   Overcast
2:53 AM 63.0 °F 57.9 °F 84% 29.97 in 10.0 mi NNE 5.8 mph - N/A   Mostly Cloudy
3:53 AM 61.0 °F 57.9 °F 90% 29.97 in 10.0 mi NNE 4.6 mph - N/A   Clear
4:53 AM 60.1 °F 57.9 °F 93% 29.98 in 10.0 mi North 4.6 mph - N/A   Clear
5:53 AM 55.9 °F 55.0 °F 97% 29.99 in 10.0 mi North 5.8 mph - N/A   Scattered Clouds
6:53 AM 57.9 °F 57.0 °F 97% 30.02 in 10.0 mi NNE 6.9 mph - N/A   Overcast
7:53 AM 60.1 °F 57.9 °F 93% 30.03 in 10.0 mi NNE 8.1 mph - N/A   Mostly Cloudy
8:53 AM 64.0 °F 60.1 °F 87% 30.03 in 10.0 mi NNE 5.8 mph - N/A   Mostly Cloudy
9:53 AM 66.9 °F 62.1 °F 84% 30.04 in 10.0 mi NNE 4.6 mph - N/A   Overcast
10:53 AM 72.0 °F 60.1 °F 66% 30.04 in 10.0 mi NNE 9.2 mph - N/A   Overcast
11:53 AM 75.0 °F 59.0 °F 57% 30.04 in 10.0 mi NE 11.5 mph 17.3 mph N/A   Mostly Cloudy
12:53 PM 75.0 °F 60.1 °F 60% 30.03 in 10.0 mi North 6.9 mph - N/A   Mostly Cloudy
1:53 PM 75.9 °F 57.9 °F 54% 30.01 in 10.0 mi North 6.9 mph - N/A   Scattered Clouds
2:53 PM 77.0 °F 57.0 °F 50% 30.00 in 10.0 mi ENE 8.1 mph - N/A   Mostly Cloudy
3:53 PM 79.0 °F 55.9 °F 45% 29.99 in 10.0 mi ENE 10.4 mph - N/A   Scattered Clouds
4:53 PM 79.0 °F 55.0 °F 44% 29.99 in 10.0 mi NNE 13.8 mph - N/A   Clear
5:53 PM 78.1 °F 55.9 °F 46% 29.99 in 10.0 mi NNE 10.4 mph - N/A   Clear
6:53 PM 73.9 °F 55.0 °F 52% 30.00 in 10.0 mi NE 4.6 mph - N/A   Clear
7:53 PM 72.0 °F 55.0 °F 55% 30.00 in 10.0 mi NE 3.5 mph - N/A   Clear
8:53 PM 61.0 °F 55.0 °F 81% 30.02 in 10.0 mi Calm Calm - N/A   Clear
9:53 PM 60.1 °F 57.0 °F 90% 30.03 in 10.0 mi Calm Calm - N/A   Clear
10:53 PM 59.0 °F 55.9 °F 90% 30.02 in 10.0 mi Calm Calm - N/A   Clear
11:53 PM 57.9 °F 55.9 °F 93% 30.03 in 10.0 mi SSW 3.5 mph - N/A   Clear